Location: Asheville, NC
(35.6000°N, 82.5500°W)
Time: 06:04:12
(UTC-04:00)

Vanguard 2 - Pass Details

Date: 12 February 2018
Orbit: 552 x 2940 km, 32.9° (Epoch: 19 May)

Event Time Altitude Azimuth Distance (km) Brightness Sun altitude
Rises 19:44:32 0° 233° (SW) 4,482 12.4 -19.9°
Reaches altitude 10° 19:48:25 10° 225° (SW) 3,098 11.2 -20.7°
Maximum altitude 19:54:39 33° 164° (SSE) 1,390 8.7 -22.0°
Enters shadow 19:55:36 31° 143° (SE) 1,382 8.5 -22.1°
Drops below altitude 10° 19:58:59 10° 99° (E) 2,114 - -22.8°
Sets 20:01:09 0° 89° (E) 2,884 - -23.3°
